[[{"header":{"parameterUnit":"m.s-1","parameterCategory":1,"la1":30.2991,"la2":30.254,"lo1":-89.0895,"lo2":-89.0444,"dx":0.0017,"dy":0.0017,"nx":28,"ny":28,"refTime":"2022-11-08T09:00:00:Z","depth":0,"parameterNumber":2,"parameterNumberName":"U-component_of_WINDS"},"data":[0,0,0,0,0,0,0,0,0,0,0,0,0,0,0,0,0,0,0,0,0,0,0,0,0,0,0,0,0,0,0,0,0,0,0,0,0,0,0,0,0,0,0,0,0,0,0,0,0,0,0,0,0,0,0,0,0,0,-1.9466,-1.9465,0,-1.9338,-1.9337,-1.9335,-1.9284,-1.9285,-1.9285,-1.9285,-1.9156,-1.9153,-1.9149,0,0,0,0,0,0,0,0,0,0,0,0,0,-1.967,-1.9667,-1.9466,-1.9465,-1.9463,-1.9338,-1.9337,-1.9335,-1.9284,-1.9285,-1.9285,-1.9286,-1.9158,-1.9153,-1.9149,0,0,0,0,0,0,0,0,0,0,0,0,0,-1.9566,-1.9666,-1.9467,-1.9423,-1.9418,-1.9339,-1.9336,-1.9334,-1.9284,-1.9285,-1.9285,-1.9286,-1.9159,-1.9154,-1.9148,-1.9104,0,0,-1.9131,-1.9129,0,0,0,0,0,0,0,0,-1.9572,-1.9559,-1.9431,-1.9426,-1.942,-1.9328,-1.9361,-1.9257,-1.9284,-1.9335,-1.9285,-1.9286,-1.9213,-1.9203,-1.9178,-1.9098,-1.9092,-1.913,-1.9127,-1.9125,-1.9123,0,0,0,0,0,0,0,-1.9579,-1.9564,-1.9416,-1.9429,-1.9422,-1.9411,-1.9396,-1.9341,-1.9273,-1.9331,-1.9327,-1.9312,-1.921,-1.9184,-1.9175,-1.909,-1.9131,-1.9126,-1.9122,-1.912,-1.8967,-1.8967,0,0,0,0,0,0,-1.9593,-1.957,-1.942,-1.9412,-1.9499,-1.9407,-1.9391,-1.9357,-1.9273,-1.9261,-1.9312,-1.931,-1.9193,-1.9181,-1.917,-1.9112,-1.9125,-1.9119,-1.9116,-1.8968,-1.8967,-1.8967,0,0,0,0,0,0,-1.9598,-1.958,-1.9425,-1.949,-1.9469,-1.9402,-1.9365,-1.9354,-1.9327,-1.9259,-1.9247,-1.9297,-1.9193,-1.9178,-1.912,-1.9107,-1.9117,-1.9112,-1.8969,-1.8968,-1.8967,-1.8997,0,0,0,0,0,0,-1.9604,-1.9582,-1.9564,-1.949,-1.9466,-1.9377,-1.9364,-1.9351,-1.9317,-1.9314,-1.9242,-1.923,-1.9192,-1.9129,-1.9115,-1.91,-1.9107,-1.897,-1.8968,-1.8967,-1.8997,-1.8997,-1.8997,0,0,0,0,0,-1.9611,-1.9578,-1.9563,-1.9546,-1.9441,-1.9376,-1.9362,-1.9318,-1.9317,-1.9298,-1.9254,-1.9233,-1.9111,-1.9124,-1.9107,-1.909,-1.897,-1.8969,-1.8967,-1.8997,-1.8997,-1.8997,0,0,0,0,0,0,-1.9653,-1.9567,-1.955,-1.9492,-1.9442,-1.9368,-1.9343,-1.932,-1.927,-1.9269,-1.9217,-1.9201,-1.9148,-1.9113,-1.9129,-1.9043,-1.9039,-1.9034,-1.9067,-1.9067,-1.9067,-1.9077,-1.9103,0,0,0,0,0,-1.9655,-1.9609,-1.9537,-1.9492,-1.9468,-1.941,-1.938,-1.935,-1.9296,-1.9275,-1.9227,-1.9176,-1.9127,-1.9095,-1.9046,-1.8992,-1.8976,-1.8972,-1.8973,-1.8973,-1.8969,-1.8939,-1.8937,-1.8961,-1.8961,-1.8962,0,0,-1.966,-1.9607,-1.9581,-1.9499,-1.9457,-1.941,-1.9392,-1.9344,-1.9309,-1.9268,-1.921,-1.9174,-1.9114,-1.9058,-1.9031,-1.9028,-1.8959,-1.8971,-1.8972,-1.8968,-1.8937,-1.8935,-1.8933,-1.896,-1.8961,-1.8961,0,0,-1.9643,-1.9599,-1.9557,-1.9515,-1.9451,-1.9413,-1.9403,-1.9332,-1.9306,-1.9248,-1.9216,-1.9175,-1.909,-1.9049,-1.9017,-1.8986,-1.8965,-1.8972,-1.8973,-1.8944,-1.8942,-1.894,-1.8929,-1.8926,-1.8969,-1.8969,-1.8969,0,-1.9657,-1.9585,-1.9538,-1.9491,-1.9457,-1.9417,-1.9375,-1.9336,-1.926,-1.9237,-1.9234,-1.9127,-1.9084,-1.9019,-1.9011,-1.8987,-1.8974,-1.898,-1.8946,-1.8943,-1.8941,-1.893,-1.8926,-1.897,-1.897,-1.897,-1.897,0,-1.9605,-1.9556,-1.9529,-1.9456,-1.9418,-1.9374,-1.9322,-1.929,-1.9264,-1.9226,-1.9168,-1.9115,-1.9054,-1.9037,-1.9011,-1.8967,-1.8967,-1.8956,-1.8951,-1.8941,-1.893,-1.8925,-1.8972,-1.8971,-1.8971,-1.8971,0,0,-1.961,-1.9512,-1.9503,-1.947,-1.9397,-1.9358,-1.9313,-1.9253,-1.9226,-1.9175,-1.9136,-1.9066,-1.9055,-1.9019,-1.8988,-1.8963,-1.8943,-1.8954,-1.8952,-1.8954,-1.8892,-1.8901,-1.8896,-1.8928,-1.8927,-1.8926,-1.8897,0,-1.9584,-1.9499,-1.9457,-1.9391,-1.9346,-1.9308,-1.9269,-1.922,-1.9184,-1.9141,-1.9102,-1.9053,-1.9042,-1.902,-1.8993,-1.8951,-1.8929,-1.8952,-1.8892,-1.889,-1.8907,-1.8891,-1.8899,-1.8874,-1.8892,-1.8891,-1.8891,0,-1.9542,-1.9491,-1.9421,-1.9354,-1.9333,-1.9298,-1.924,-1.9199,-1.9144,-1.912,-1.908,-1.905,-1.9002,-1.9001,-1.8934,-1.8951,-1.8923,-1.8899,-1.8897,-1.8889,-1.889,-1.8882,-1.8865,-1.8861,-1.8884,-1.8884,-1.8885,0,-1.9552,-1.9466,-1.9413,-1.9386,-1.9306,-1.9283,-1.9249,-1.9194,-1.9161,-1.9111,-1.9089,-1.9034,-1.9004,-1.8963,-1.892,-1.8923,-1.8857,-1.8853,-1.8836,-1.8837,-1.8823,-1.8825,-1.8801,-1.8807,-1.8807,-1.8807,-1.8807,0,-1.9527,-1.9486,-1.9417,-1.9385,-1.9337,-1.929,-1.9245,-1.9208,-1.916,-1.912,-1.9084,-1.9048,-1.8993,-1.895,-1.8916,-1.8866,-1.8853,-1.8833,-1.8824,-1.8835,-1.8838,-1.8817,-1.8817,-1.8806,-1.8806,-1.8806,-1.8806,0,-1.9531,-1.9483,-1.9423,-1.9353,-1.9334,-1.9303,-1.9243,-1.9211,-1.9174,-1.9124,-1.9109,-1.9051,-1.8999,-1.8952,-1.8883,-1.886,-1.8809,-1.8798,-1.8827,-1.8822,-1.8808,-1.881,-1.877,-1.8762,-1.8774,-1.8774,-1.8774,0,-1.9518,-1.9485,-1.9412,-1.9382,-1.9349,-1.9302,-1.9268,-1.922,-1.9187,-1.9122,-1.9097,-1.9042,-1.8996,-1.8914,-1.8866,-1.8813,-1.8801,-1.879,-1.8793,-1.8806,-1.8801,-1.8803,-1.88,-1.8791,-1.8791,-1.8791,-1.8791,0,-1.9499,-1.9478,-1.943,-1.9374,-1.9335,-1.9289,-1.9242,-1.922,-1.9163,-1.9128,-1.9073,-1.9037,-1.8967,-1.8913,-1.8855,-1.882,-1.8797,-1.8791,-1.8784,-1.8795,-1.8813,-1.8803,-1.8828,-1.8792,-1.8792,-1.8792,-1.8792,-1.8792,-1.9494,-1.9463,-1.9407,-1.9355,-1.9315,-1.9272,-1.9238,-1.9197,-1.9151,-1.9089,-1.9064,-1.9009,-1.8956,-1.8875,-1.8841,-1.8798,-1.8793,-1.8784,-1.8781,-1.878,-1.8782,-1.8821,-1.8787,-1.8787,-1.8787,-1.8787,-1.8787,0,-1.9474,-1.9436,-1.9389,-1.9324,-1.9284,-1.9265,-1.9212,-1.918,-1.9132,-1.9084,-1.9038,-1.8977,-1.8925,-1.8873,-1.8818,-1.8794,-1.8782,-1.8781,-1.8782,-1.8775,-1.8789,-1.88,-1.8792,-1.8792,-1.8792,-1.8792,-1.8792,-1.8792,-1.9458,-1.9406,-1.9378,-1.9305,-1.9267,-1.9213,-1.9185,-1.9145,-1.9107,-1.9039,-1.8995,-1.8962,-1.8913,-1.8854,-1.8806,-1.8792,-1.8774,-1.8776,-1.876,-1.8774,-1.8774,-1.8774,-1.8784,-1.8773,-1.8773,-1.8749,-1.8748,-1.8748]},{"header":{"parameterUnit":"m.s-1","parameterCategory":1,"la1":30.2991,"la2":30.254,"lo1":-89.0895,"lo2":-89.0444,"dx":0.0017,"dy":0.0017,"nx":28,"ny":28,"refTime":"2022-11-08T09:00:00:Z","depth":0,"parameterNumber":3,"parameterNumberName":"V-component_of_WINDS"},"data":[0,0,0,0,0,0,0,0,0,0,0,0,0,0,0,0,0,0,0,0,0,0,0,0,0,0,0,0,0,0,0,0,0,0,0,0,0,0,0,0,0,0,0,0,0,0,0,0,0,0,0,0,0,0,0,0,0,0,-1.9413,-1.9413,0,-1.9418,-1.9418,-1.9418,-1.9386,-1.9385,-1.9384,-1.9384,-1.9387,-1.9388,-1.9389,0,0,0,0,0,0,0,0,0,0,0,0,0,-1.9374,-1.9374,-1.9413,-1.9413,-1.9413,-1.9418,-1.9418,-1.9418,-1.9386,-1.9385,-1.9384,-1.9383,-1.9387,-1.9388,-1.9389,0,0,0,0,0,0,0,0,0,0,0,0,0,-1.9386,-1.9375,-1.9413,-1.9398,-1.9396,-1.9418,-1.9418,-1.9418,-1.9387,-1.9385,-1.9384,-1.9383,-1.9386,-1.9388,-1.9389,-1.9425,0,0,-1.9394,-1.9394,0,0,0,0,0,0,0,0,-1.9385,-1.9387,-1.94,-1.9399,-1.9397,-1.94,-1.9406,-1.9421,-1.9387,-1.939,-1.9384,-1.9382,-1.9392,-1.9393,-1.9397,-1.9425,-1.9425,-1.9394,-1.9394,-1.9395,-1.9395,0,0,0,0,0,0,0,-1.9384,-1.9387,-1.9415,-1.94,-1.9399,-1.939,-1.9391,-1.9408,-1.9399,-1.939,-1.9388,-1.9389,-1.9391,-1.9396,-1.9397,-1.9425,-1.9394,-1.9395,-1.9396,-1.9396,-1.9485,-1.9487,0,0,0,0,0,0,-1.9386,-1.9386,-1.9415,-1.9415,-1.9388,-1.9392,-1.9392,-1.9401,-1.9399,-1.9397,-1.939,-1.9387,-1.9394,-1.9395,-1.9397,-1.9441,-1.9395,-1.9396,-1.9397,-1.9484,-1.9486,-1.9487,0,0,0,0,0,0,-1.9385,-1.9389,-1.9415,-1.94,-1.9403,-1.9394,-1.9404,-1.9402,-1.9406,-1.9399,-1.9397,-1.9396,-1.9393,-1.9395,-1.9419,-1.9441,-1.9397,-1.9398,-1.9482,-1.9484,-1.9486,-1.9528,0,0,0,0,0,0,-1.9384,-1.9389,-1.9402,-1.9401,-1.9404,-1.9437,-1.9405,-1.9403,-1.9409,-1.9405,-1.9404,-1.9403,-1.9392,-1.9417,-1.942,-1.9442,-1.9399,-1.948,-1.9483,-1.9486,-1.9525,-1.9531,-1.9537,0,0,0,0,0,-1.9383,-1.9413,-1.9403,-1.9407,-1.9421,-1.9438,-1.944,-1.9428,-1.9411,-1.9425,-1.942,-1.9403,-1.9437,-1.942,-1.9423,-1.9445,-1.9479,-1.9482,-1.9485,-1.9522,-1.953,-1.9537,0,0,0,0,0,0,-1.9416,-1.9412,-1.9402,-1.9432,-1.9436,-1.9433,-1.945,-1.9437,-1.9445,-1.9441,-1.9425,-1.9425,-1.9452,-1.945,-1.9431,-1.9481,-1.9455,-1.9459,-1.9481,-1.9489,-1.9495,-1.9496,-1.9401,0,0,0,0,0,-1.9427,-1.9442,-1.9438,-1.9465,-1.9468,-1.9459,-1.9466,-1.9456,-1.9459,-1.946,-1.9457,-1.946,-1.9472,-1.948,-1.949,-1.9523,-1.9524,-1.954,-1.9547,-1.9552,-1.9556,-1.9576,-1.9584,-1.9498,-1.9498,-1.9498,0,0,-1.945,-1.945,-1.946,-1.9472,-1.9474,-1.949,-1.946,-1.9478,-1.9489,-1.9462,-1.9486,-1.9484,-1.9486,-1.9516,-1.9528,-1.9515,-1.958,-1.9556,-1.956,-1.9562,-1.958,-1.9588,-1.9596,-1.9501,-1.95,-1.95,0,0,-1.9501,-1.9501,-1.9526,-1.9528,-1.9532,-1.9526,-1.9531,-1.953,-1.9529,-1.9552,-1.9533,-1.9546,-1.9565,-1.9569,-1.9573,-1.9625,-1.9611,-1.9629,-1.9662,-1.9681,-1.9688,-1.9694,-1.9715,-1.9723,-1.9633,-1.9633,-1.9633,0,-1.9529,-1.9553,-1.9539,-1.9559,-1.9565,-1.9543,-1.9567,-1.957,-1.9576,-1.9581,-1.9566,-1.9592,-1.9591,-1.9623,-1.9636,-1.9639,-1.9646,-1.963,-1.9688,-1.9694,-1.97,-1.9719,-1.9727,-1.9635,-1.9635,-1.9635,-1.9635,0,-1.9588,-1.9605,-1.9624,-1.9632,-1.964,-1.9662,-1.9652,-1.9662,-1.9651,-1.9647,-1.9671,-1.967,-1.9681,-1.9687,-1.9676,-1.9717,-1.9709,-1.9691,-1.9665,-1.971,-1.9729,-1.9736,-1.9639,-1.9638,-1.9637,-1.9637,0,0,-1.966,-1.9662,-1.967,-1.9674,-1.9677,-1.9689,-1.971,-1.9721,-1.9731,-1.9735,-1.9754,-1.9771,-1.9756,-1.976,-1.975,-1.9766,-1.9811,-1.9747,-1.9747,-1.9761,-1.9858,-1.9873,-1.9882,-1.98,-1.9802,-1.9803,-1.9859,0,-1.9712,-1.9749,-1.9738,-1.9776,-1.9792,-1.9771,-1.9789,-1.9793,-1.9789,-1.9802,-1.9797,-1.9811,-1.9788,-1.9791,-1.9807,-1.9803,-1.9831,-1.9798,-1.9818,-1.9819,-1.9821,-1.9891,-1.9907,-1.996,-1.9865,-1.9867,-1.9867,0,-1.9777,-1.9787,-1.9827,-1.9828,-1.9834,-1.9851,-1.9862,-1.9874,-1.9878,-1.9874,-1.988,-1.9866,-1.9887,-1.9859,-1.9888,-1.9866,-1.9873,-1.9873,-1.9874,-1.9878,-1.9848,-1.9899,-1.9976,-1.9985,-1.9878,-1.9877,-1.9877,0,-1.9829,-1.9851,-1.9879,-1.9883,-1.9885,-1.9898,-1.9899,-1.9901,-1.9909,-1.9917,-1.9923,-1.9933,-1.9939,-1.9947,-1.9937,-1.9917,-1.9968,-1.9939,-1.9966,-1.9967,-1.998,-1.998,-2.0062,-1.998,-1.998,-1.998,-1.998,0,-1.9889,-1.9915,-1.9903,-1.992,-1.9948,-1.9935,-1.9963,-1.9962,-1.9964,-1.9981,-1.9961,-1.9977,-1.9961,-1.9975,-1.9966,-1.9993,-1.9995,-1.9993,-1.9991,-1.9997,-1.9997,-2.0003,-2.0,-1.9982,-1.9982,-1.9981,-1.9981,0,-1.9953,-1.9946,-1.9975,-1.9975,-1.9975,-1.9996,-1.9996,-2.0012,-2.0006,-2.0028,-2.0032,-2.0024,-2.0039,-2.0029,-2.0044,-2.0039,-2.0074,-2.0066,-2.0074,-2.0073,-2.0102,-2.01,-2.0192,-2.0205,-2.0113,-2.0114,-2.0115,0,-1.9993,-2.0013,-2.0016,-2.0026,-2.0029,-2.0045,-2.0054,-2.0041,-2.0051,-2.0057,-2.0072,-2.0087,-2.0098,-2.0124,-2.0119,-2.0131,-2.0124,-2.0156,-2.0126,-2.0131,-2.0128,-2.0128,-2.0131,-2.0162,-2.0164,-2.0164,-2.0165,0,-2.0066,-2.0062,-2.0076,-2.0089,-2.01,-2.0109,-2.0117,-2.0126,-2.0113,-2.0125,-2.0142,-2.0151,-2.0167,-2.0182,-2.0192,-2.0193,-2.0178,-2.0174,-2.0182,-2.0189,-2.0194,-2.0194,-2.0093,-2.0173,-2.0172,-2.0171,-2.0171,-2.0171,-2.0121,-2.0138,-2.0144,-2.016,-2.0165,-2.0173,-2.0188,-2.0186,-2.02,-2.0213,-2.0204,-2.0225,-2.0228,-2.0241,-2.0243,-2.0259,-2.0246,-2.0256,-2.0259,-2.0262,-2.0268,-2.0189,-2.026,-2.026,-2.0259,-2.0259,-2.0259,0,-2.0195,-2.0197,-2.0213,-2.0225,-2.0238,-2.0223,-2.0231,-2.0243,-2.0261,-2.0266,-2.0278,-2.0298,-2.0312,-2.0309,-2.0322,-2.0335,-2.0329,-2.034,-2.034,-2.0341,-2.0277,-2.0271,-2.0345,-2.0345,-2.0345,-2.0345,-2.0345,-2.0345,-2.0235,-2.0265,-2.0261,-2.0293,-2.0295,-2.0316,-2.0322,-2.0329,-2.0334,-2.0358,-2.037,-2.0368,-2.037,-2.0383,-2.0396,-2.0395,-2.0402,-2.0415,-2.0412,-2.0353,-2.0345,-2.0337,-2.0331,-2.0416,-2.0416,-2.0474,-2.0475,-2.0475]}]]